Regional Weather Roundup
Issued by NWS

Home | Current Version | Previous Version | Graphics & Text | Print | Product List | Glossary Off
Versions: 1 2 3 4 5 6 7 8 9 10 11 12 13 14 15 16 17 18 19 20 21 22 23 24 25 26 27 28 29 30 31 32 33 34 35 36 37 38 39 40 41 42 43 44 45 46 47 48 49 50

000
ASUS43 KMKX 201821
RWRWI

WISCONSIN REGIONAL WEATHER ROUNDUP
NATIONAL WEATHER SERVICE MILWAUKEE/SULLIVAN WI
100 PM CDT FRI APR 20 2018

NOTE: "FAIR" INDICATES FEW OR NO CLOUDS BELOW 12,000 FEET WITH NO
SIGNIFICANT WEATHER AND/OR OBSTRUCTIONS TO VISIBILITY.

WIZ001-002-006>008-014>016-023>028-201900-
NORTHWEST WISCONSIN

CITY           SKY/WX    TMP DP  RH WIND       PRES   REMARKS
SUPERIOR ARPT  FAIR      57  25  29 S8        30.43F
6HR MIN TEMP:  32; 6HR MAX TEMP:  57;

ASHLAND        FAIR      55  19  24 W8        30.44F
6HR MIN TEMP:  34; 6HR MAX TEMP:  55;

HAYWARD        FAIR      51  21  30 S5        30.45F
6HR MIN TEMP:  22; 6HR MAX TEMP:  52;

SIREN          FAIR      52  21  30 SW6       30.46F
6HR MIN TEMP:  26; 6HR MAX TEMP:  52;

CUMBERLAND     FAIR      46  19  34 CALM      30.47F
RICE LAKE      FAIR      49  25  38 CALM      30.48F
6HR MIN TEMP:  22; 6HR MAX TEMP:  49;

CHETEK         FAIR      51  22  31 S7        30.47F
6HR MIN TEMP:  23; 6HR MAX TEMP:  51;

LADYSMITH      FAIR      53  20  27 CALM      30.47F
6HR MIN TEMP:  23; 6HR MAX TEMP:  52;

EAU CLAIRE     FAIR      51  20  29 CALM      30.47F
6HR MIN TEMP:  26; 6HR MAX TEMP:  51;

MENOMONIE      FAIR      51  24  35 SE5       30.48S
6HR MIN TEMP:  27; 6HR MAX TEMP:  51;

NEW RICHMOND   FAIR      49  24  36 CALM      30.49S
6HR MIN TEMP:  26; 6HR MAX TEMP:  49;

OSCEOLA        FAIR      50  24  35 S3        30.51F
6HR MIN TEMP:  25; 6HR MAX TEMP:  50;

$$

WIZ003>005-009-010-017-018-201900-
NORTH CENTRAL WISCONSIN

CITY           SKY/WX    TMP DP  RH WIND       PRES   REMARKS
MANITOWISH WTR FAIR      51  14  22 S3        30.43F
6HR MIN TEMP:  17; 6HR MAX TEMP:  52;

ARBOR VITAE    FAIR      54  10  17 CALM      30.43F
6HR MIN TEMP:  22; 6HR MAX TEMP:  54;

WOODRUFF       FAIR      54  10  17 CALM      30.43F
6HR MIN TEMP:  22; 6HR MAX TEMP:  54;

RHINELANDER    FAIR      53  13  20 W7        30.44F
6HR MIN TEMP:  21; 6HR MAX TEMP:  53;

EAGLE RIVER    FAIR      51   8  17 W9        30.42F
6HR MIN TEMP:  17; 6HR MAX TEMP:  52;

LAND O LAKES   FAIR      55   6  13 SW3       30.43F
6HR MIN TEMP:  16; 6HR MAX TEMP:  55;

PHILLIPS       FAIR      51  16  24 SW6       30.44F
6HR MIN TEMP:  18; 6HR MAX TEMP:  51;

TOMAHAWK       FAIR      53   9  17 W6        30.45F
6HR MIN TEMP:  14; 6HR MAX TEMP:  54;

MEDFORD        FAIR      46  21  36 S7        30.47S
6HR MIN TEMP:  22; 6HR MAX TEMP:  47;

MERRILL          N/A     52  16  23 SW5       30.46F
6HR MIN TEMP:  18; 6HR MAX TEMP:  52;

$$

WIZ029-030-035-036-043>047-201900-
CENTRAL WISCONSIN

CITY           SKY/WX    TMP DP  RH WIND       PRES   REMARKS
WAUSAU         FAIR      51  12  21 W7        30.45F
6HR MIN TEMP:  23; 6HR MAX TEMP:  51;

MOSINEE        PTSUNNY   52  19  28 SW5       30.48F
MARSHFIELD     FAIR      48  16  27 NW5       30.47S
6HR MIN TEMP:  28; 6HR MAX TEMP:  49;

STEVENS POINT  FAIR      49  13  23 SW6       30.48S
6HR MIN TEMP:  18; 6HR MAX TEMP:  50;

WAUPACA        FAIR      56  10  16 E6        30.47F
6HR MIN TEMP:  27; 6HR MAX TEMP:  57;

WAUTOMA        FAIR      52  18  26 W6        30.48F
6HR MIN TEMP:  23; 6HR MAX TEMP:  53;

WISC RAPIDS    FAIR      55  16  21 CALM      30.49F
6HR MIN TEMP:  21; 6HR MAX TEMP:  55;

CAMP DOUGLAS   PTSUNNY   52  18  25 N3        30.48F
$$

WIZ011>013-019>022-031-037>040-048>050-201900-
NORTHEAST WISCONSIN

CITY           SKY/WX    TMP DP  RH WIND       PRES   REMARKS
ANTIGO         FAIR      50  19  29 CALM      30.46F
6HR MIN TEMP:  20; 6HR MAX TEMP:  50;

SHAWANO        FAIR      58   9  14 SW5       30.46F
6HR MIN TEMP:  24; 6HR MAX TEMP:  57;

OCONTO         FAIR      48  18  30 SE8       30.47F
6HR MIN TEMP:  18; 6HR MAX TEMP:  49;

STURGEON BAY   FAIR      50  13  22 S7        30.49F
6HR MIN TEMP:  29; 6HR MAX TEMP:  50;

GREEN BAY      FAIR      45  27  49 S6        30.49F
6HR MIN TEMP:  24; 6HR MAX TEMP:  45;

MANITOWOC      FAIR      47  21  35 S9        30.50F
6HR MIN TEMP:  26; 6HR MAX TEMP:  48;

APPLETON       PTSUNNY   50  12  22 VRB5      30.47F
CLINTONVILLE   FAIR      51  15  24 S5        30.47F
6HR MIN TEMP:  20; 6HR MAX TEMP:  51;

OSHKOSH        FAIR      46  25  43 S5        30.49F
6HR MIN TEMP:  26; 6HR MAX TEMP:  47;

$$

WIZ032>034-041-042-053>061-201900-
SOUTHWEST WISCONSIN

CITY           SKY/WX    TMP DP  RH WIND       PRES   REMARKS
LA CROSSE      FAIR      52  24  33 S6        30.49F
6HR MIN TEMP:  27; 6HR MAX TEMP:  53;

SPARTA         FAIR      52  18  26 CALM      30.49F
6HR MIN TEMP:  17; 6HR MAX TEMP:  52;

VIROQUA        FAIR      48  19  31 CALM      30.49S
6HR MIN TEMP:  27; 6HR MAX TEMP:  48;

BOSCOBEL       FAIR      55  26  32 VRB3      30.49F
6HR MIN TEMP:  24; 6HR MAX TEMP:  56;

PRAIRIE DU CHI FAIR      52  23  32 CALM      30.50F
6HR MIN TEMP:  25; 6HR MAX TEMP:  52;

PLATTEVILLE    FAIR      53  30  41 S6        30.49F
6HR MIN TEMP:  29; 6HR MAX TEMP:  53;

$$

WIZ056-057-062-063-064-067-068-201900-
SOUTH CENTRAL WISCONSIN

CITY           SKY/WX    TMP DP  RH WIND       PRES   REMARKS
REEDSBURG      FAIR      50  19  28 SW5       30.48F
6HR MIN TEMP:  22; 6HR MAX TEMP:  50;

BARABOO/DELLS  FAIR      50  16  25 S3        30.48F
6HR MIN TEMP:  22; 6HR MAX TEMP:  51;

LONE ROCK      FAIR      54  21  27 NE5       30.49F
6HR MIN TEMP:  23; 6HR MAX TEMP:  54;

MINERAL POINT  FAIR      55  21  26 SE7       30.48F
MADISON        PTSUNNY   53  16  23 CALM      30.49F
6HR MIN TEMP:  25; 6HR MAX TEMP:  53;

MIDDLETON      FAIR      55  23  29 CALM      30.49F
6HR MIN TEMP:  28; 6HR MAX TEMP:  55;

WATERTOWN      FAIR      49  22  33 W3        30.49F
6HR MIN TEMP:  21; 6HR MAX TEMP:  49;

MONROE         FAIR      54  19  26 S10       30.48F
JANESVILLE     MOSUNNY   59  10  14 VRB6      30.48F
$$

WIZ051-052-058>065-066-070>072-201900-
SOUTHEAST WISCONSIN

CITY           SKY/WX    TMP DP  RH WIND       PRES   REMARKS
MILWAUKEE      PTSUNNY   50  26  39 SE9       30.51F
6HR MIN TEMP:  35; 6HR MAX TEMP:  50;

WAUKESHA       SUNNY     52  21  30 CALM      30.51F
MILWAUKEE/TIMM SUNNY     52  18  25 S5        30.51F
RACINE         FAIR      52  24  33 S9        30.52F
6HR MIN TEMP:  33; 6HR MAX TEMP:  52;

BURLINGTON     FAIR      53  22  29 CALM      30.50F
6HR MIN TEMP:  28; 6HR MAX TEMP:  53;

KENOSHA        FAIR      55  28  35 SE5       30.50F
6HR MIN TEMP:  32; 6HR MAX TEMP:  55;

FOND DU LAC    FAIR      47  22  37 S6        30.49F
6HR MIN TEMP:  23; 6HR MAX TEMP:  47; 6HR PCP: TRACE;

SHEBOYGAN      FAIR      50  26  39 S7        30.49F
6HR MIN TEMP:  27; 6HR MAX TEMP:  50;

WEST BEND      FAIR      52  21  30 SW6       30.49F
JUNEAU         FAIR      45  22  41 CALM      30.50F
6HR MIN TEMP:  25; 6HR MAX TEMP:  45;

$$

LSZ147-162-201900-
LAKE SUPERIOR

STATION/POSITION TIME  TEMP    WIND        PRES    WAVE
                       AIR SEA DIR/SP/G            HT/PER
                 (UTC) (F)     (DEG/KT/KT) (MB)    (FT/S)
DEVILS ISLAND    1800   45     230/  5/  8 1031.4F
SAXON HARBOR     1740   42     330/  1/  4 1030.5S
$$

LMZ867-665-643>646-201900-
LAKE MICHIGAN

STATION/POSITION TIME  TEMP    WIND        PRES    WAVE
                       AIR SEA DIR/SP/G            HT/PER




USA.gov is the U.S. government's official web portal to all federal, state and local government web resources and services.